Date_and_time,latitude,longitude,wind_speed,RelWindDirFrom,WindDirFrom,air_pressure,air_temperature,relative_humidity,Temp,platform_speed_wrt_ground,air_pressure_at_mean_sea_level,platform_orientation
2019-11-17 23:50,50.6304566666667,-96.9807733333333,8.1,9.5,166,982.62,-3.2,99,0.98,0.0,1010.67,192.6
2019-11-18 00:00,50.6304566666667,-96.980775,8.0,9.4,170,982.60,-3.1,99,1.00,0.0,1010.65,234.7
2019-11-18 00:10,50.6304533333333,-96.9807683333333,7.9,9.1,166,982.51,-3.1,99,1.00,0.0,1010.56,234.7
2019-11-18 00:20,50.630455,-96.98077,7.9,9.6,167,982.40,-3.1,99,1.00,0.0,1010.44,234.7
2019-11-18 00:30,50.6304566666667,-96.98077,8.0,9.4,174,982.40,-3.1,99,1.00,0.0,1010.43,234.7
2019-11-18 00:40,50.6304583333333,-96.9807716666667,7.9,9.5,177,982.30,-3.1,99,1.01,0.0,1010.33,234.7
2019-11-18 00:50,50.6304566666667,-96.9807683333333,8.6,10.1,178,982.12,-3.1,98,1.01,0.0,1010.15,234.7
2019-11-18 01:00,50.6304516666667,-96.9807516666667,8.0,10.2,177,981.96,-3.1,96,1.01,0.0,1009.98,90.0
2019-11-18 01:10,50.6304466666667,-96.9807433333333,7.1,8.8,179,981.92,-3.1,94,1.02,0.0,1009.94,90.0
2019-11-18 01:20,50.6304566666667,-96.9807516666667,7.3,9.9,181,981.73,-3.1,92,1.02,0.0,1009.74,90.0
2019-11-18 01:30,50.6304616666667,-96.9807566666667,8.0,10.6,176,981.63,-3.1,90,1.02,0.0,1009.64,90.0
2019-11-18 01:40,50.6304616666667,-96.9807583333333,7.8,9.1,177,981.58,-3.1,89,1.02,0.0,1009.60,90.0
2019-11-18 01:50,50.63046,-96.9807583333333,8.6,10.6,176,981.40,-3.1,90,1.02,0.0,1009.41,90.0
2019-11-18 02:00,50.6304583333333,-96.9807583333333,9.1,10.6,174,981.21,-3.2,90,1.02,0.0,1009.22,54.7
2019-11-18 02:10,50.6304583333333,-96.9807566666667,8.9,10.8,172,981.04,-3.2,90,1.02,0.0,1009.03,54.7
2019-11-18 02:20,50.6304583333333,-96.9807583333333,8.3,10.4,174,981.02,-3.1,90,1.02,0.0,1009.02,54.7
2019-11-18 02:30,50.63046,-96.980755,9.1,12.1,173,980.97,-3.1,90,1.03,0.0,1008.96,54.7
2019-11-18 02:40,50.6304616666667,-96.9807566666667,10.7,12.9,167,980.69,-3.1,90,1.03,0.0,1008.67,54.7
2019-11-18 02:50,50.6304616666667,-96.9807583333333,11.4,13.6,172,980.64,-3.1,90,1.04,0.0,1008.62,54.7
2019-11-18 03:00,50.6304516666667,-96.9807633333333,11.6,13.9,168,980.63,-3.0,91,1.05,0.0,1008.61,90.0
2019-11-18 03:10,50.6304566666667,-96.9807616666667,12.5,14.7,164,980.39,-3.0,91,1.06,0.0,1008.35,90.0
2019-11-18 03:20,50.630455,-96.9807616666667,13.5,16.8,164,980.22,-3.0,93,1.07,0.0,1008.19,90.0
2019-11-18 03:30,50.630455,-96.98076,14.2,17.8,163,980.05,-3.0,94,1.08,0.0,1008.01,90.0
2019-11-18 03:40,50.630455,-96.9807616666667,14.1,17.0,161,979.83,-3.0,95,1.08,0.0,1007.78,90.0
2019-11-18 03:50,50.6304566666667,-96.9807616666667,14.7,17.3,163,979.60,-3.0,95,1.09,0.0,1007.55,90.0
2019-11-18 04:00,50.6304566666667,-96.9807633333333,13.9,17.7,158,979.48,-2.9,97,1.10,0.0,1007.42,270.0
2019-11-18 04:10,50.6304566666667,-96.98076,13.7,18.4,157,979.43,-2.9,98,1.11,0.0,1007.37,270.0
2019-11-18 04:20,50.6304566666667,-96.98076,13.5,16.3,155,979.40,-2.8,97,1.11,0.0,1007.34,270.0
2019-11-18 04:30,50.6304383333333,-96.98072,15.4,18.5,152,979.15,-2.9,97,1.11,0.0,1007.07,270.0
2019-11-18 04:40,50.6304583333333,-96.9807516666667,16.0,19.1,151,978.92,-2.9,98,1.12,0.0,1006.83,270.0
2019-11-18 04:50,50.6304566666667,-96.9807516666667,15.7,18.5,153,978.90,-2.9,99,1.12,0.0,1006.82,270.0
2019-11-18 05:00,50.6304566666667,-96.9807566666667,16.3,19.3,146,978.67,-2.9,99,1.12,0.0,1006.58,360.0
2019-11-18 05:10,50.630455,-96.980755,15.3,17.9,151,978.84,-2.9,99,1.12,0.0,1006.75,360.0
2019-11-18 05:20,50.6304566666667,-96.9807483333333,16.7,19.8,151,978.71,-3.0,99,1.12,0.0,1006.62,360.0
2019-11-18 05:30,50.6304533333333,-96.980755,15.3,18.2,152,978.59,-2.9,99,1.12,0.0,1006.50,360.0
2019-11-18 05:40,50.6304533333333,-96.9807566666667,15.6,18.3,154,978.58,-2.9,99,1.12,0.0,1006.49,360.0
2019-11-18 05:50,50.63043,-96.9807583333333,15.9,19.1,152,978.46,-2.9,99,1.11,0.0,1006.36,360.0
2019-11-18 06:00,50.6304466666667,-96.9807616666667,15.7,19.1,154,978.42,-2.8,99,1.11,0.0,1006.31,167.4
2019-11-18 06:10,50.6304366666667,-96.980755,16.1,18.8,151,978.30,-2.8,99,1.11,0.0,1006.18,167.4
2019-11-18 06:20,50.630445,-96.9807683333333,16.5,19.3,149,978.11,-2.8,99,1.11,0.0,1006.00,167.4
2019-11-18 06:30,50.6304483333333,-96.980775,16.3,19.0,148,978.07,-2.7,99,1.11,0.0,1005.95,167.4
2019-11-18 06:40,50.6304516666667,-96.980775,17.0,19.2,151,978.01,-2.7,99,1.11,0.0,1005.88,167.4
2019-11-18 06:50,50.6304516666667,-96.9807716666667,16.0,20.1,154,978.05,-2.6,99,1.11,0.0,1005.93,167.4
2019-11-18 07:00,50.6304533333333,-96.9807716666667,16.7,20.0,155,977.99,-2.6,99,1.11,0.0,1005.86,270.0
2019-11-18 07:10,50.6304533333333,-96.9807716666667,16.8,19.5,153,977.75,-2.5,99,1.11,0.0,1005.61,270.0
2019-11-18 07:20,50.630455,-96.9807716666667,16.4,20.1,152,977.59,-2.5,99,1.11,0.0,1005.45,270.0
2019-11-18 07:30,50.630455,-96.98077,18.5,21.2,147,977.21,-2.5,99,1.11,0.0,1005.05,270.0
2019-11-18 07:40,50.6304566666667,-96.98077,17.5,20.8,148,977.05,-2.5,99,1.11,0.0,1004.88,270.0
2019-11-18 07:50,50.6304566666667,-96.98077,16.1,20.0,151,977.16,-2.4,99,1.11,0.0,1005.00,270.0
2019-11-18 08:00,50.6304583333333,-96.980745,14.9,17.6,155,977.32,-2.4,99,1.11,0.0,1005.15,54.7
2019-11-18 08:10,50.630455,-96.98076,17.2,19.9,149,976.95,-2.3,99,1.11,0.0,1004.77,54.7
2019-11-18 08:20,50.6304533333333,-96.9807516666667,17.5,21.5,149,976.77,-2.3,99,1.10,0.0,1004.58,54.7
2019-11-18 08:30,50.63045,-96.9807533333333,15.7,19.5,156,977.00,-2.2,99,1.10,0.0,1004.81,54.7
2019-11-18 08:40,50.6304533333333,-96.9807633333333,15.3,18.5,155,977.04,-2.2,99,1.10,0.0,1004.85,54.7
2019-11-18 08:50,50.630455,-96.980765,17.2,20.4,145,976.62,-2.2,99,1.10,0.0,1004.41,54.7
2019-11-18 09:00,50.630455,-96.980765,15.8,19.2,147,976.59,-2.1,99,1.10,0.0,1004.37,311.7
2019-11-18 09:10,50.630455,-96.9807666666667,16.5,19.8,151,976.51,-2.0,99,1.10,0.0,1004.29,311.7
2019-11-18 09:20,50.6304916666667,-96.98081,16.4,20.4,151,976.30,-2.0,99,1.10,0.0,1004.07,311.7
2019-11-18 09:30,50.6304616666667,-96.9807783333333,15.4,19.8,159,976.42,-2.0,99,1.11,0.0,1004.19,311.7
2019-11-18 09:40,50.6304583333333,-96.9807783333333,16.4,20.3,154,976.18,-2.0,99,1.11,0.0,1003.95,311.7
2019-11-18 09:50,50.63046,-96.9807666666667,15.9,19.4,156,976.15,-2.0,99,1.12,0.0,1003.91,311.7
2019-11-18 10:00,50.6304633333333,-96.980765,17.7,21.5,149,975.65,-2.0,99,1.13,0.0,1003.39,360.0
2019-11-18 10:10,50.6304616666667,-96.9807683333333,16.9,20.3,149,975.50,-1.9,99,1.13,0.0,1003.23,360.0
2019-11-18 10:20,50.6304583333333,-96.9807666666667,15.9,20.5,154,975.53,-1.9,99,1.14,0.0,1003.26,360.0
2019-11-18 10:30,50.630455,-96.9807833333333,15.6,19.4,159,975.65,-1.8,99,1.15,0.0,1003.37,360.0
2019-11-18 10:40,50.63046,-96.9807783333333,15.0,19.2,165,975.72,-1.8,99,1.16,0.0,1003.44,360.0
2019-11-18 10:50,50.6304583333333,-96.9807766666667,16.0,20.1,161,975.48,-1.8,99,1.16,0.0,1003.19,360.0
2019-11-18 11:00,50.6304566666667,-96.980775,14.1,17.9,164,975.66,-1.7,99,1.15,0.0,1003.37,252.3
2019-11-18 11:10,50.6304466666667,-96.9807666666667,14.2,18.5,157,975.52,-1.7,99,1.15,0.0,1003.23,252.3
2019-11-18 11:20,50.6304583333333,-96.9807733333333,14.5,18.9,158,975.52,-1.7,99,1.15,0.0,1003.23,252.3
2019-11-18 11:30,50.63046,-96.9807683333333,14.8,17.6,149,975.31,-1.7,99,1.15,0.0,1003.01,252.3
2019-11-18 11:40,50.6304583333333,-96.9807516666667,17.0,19.8,145,974.98,-1.7,99,1.15,0.0,1002.67,252.3
2019-11-18 11:50,50.630455,-96.980765,15.9,20.2,149,974.94,-1.7,100,1.16,0.0,1002.63,252.3
2019-11-18 12:00,50.6304583333333,-96.980755,14.5,17.9,159,975.17,-1.7,100,1.16,0.0,1002.87,12.6
2019-11-18 12:10,50.63045,-96.9807533333333,15.7,19.1,156,974.97,-1.7,100,1.16,0.0,1002.66,12.6
2019-11-18 12:20,50.63048,-96.9808266666667,15.7,20.0,155,974.81,-1.7,100,1.16,0.0,1002.49,12.6
2019-11-18 12:30,50.6304566666667,-96.9807683333333,14.3,17.9,159,975.08,-1.7,100,1.17,0.0,1002.76,12.6
2019-11-18 12:40,50.6304583333333,-96.9807683333333,16.2,20.6,156,974.52,-1.7,100,1.17,0.0,1002.19,12.6
2019-11-18 12:50,50.630455,-96.9807683333333,15.5,19.3,159,974.67,-1.6,100,1.18,0.0,1002.33,12.6
2019-11-18 13:00,50.6304566666667,-96.9807866666667,15.6,19.6,157,974.65,-1.6,100,1.18,0.0,1002.31,234.7
2019-11-18 13:10,50.6304566666667,-96.9807733333333,16.5,20.8,154,974.59,-1.6,100,1.18,0.0,1002.25,234.7
2019-11-18 13:20,50.6304483333333,-96.98076,16.2,18.9,151,974.52,-1.6,100,1.17,0.0,1002.18,234.7
2019-11-18 13:30,50.630455,-96.980765,16.0,19.8,151,974.49,-1.6,100,1.17,0.0,1002.14,234.7
2019-11-18 13:40,50.6304583333333,-96.980765,16.5,20.4,152,974.46,-1.6,100,1.17,0.0,1002.12,234.7
2019-11-18 13:50,50.6304616666667,-96.9807616666667,16.5,19.3,151,974.37,-1.5,100,1.17,0.0,1002.02,234.7
2019-11-18 14:00,50.63046,-96.9807633333333,18.5,21.7,149,974.16,-1.5,100,1.17,0.0,1001.80,12.6
2019-11-18 14:10,50.63046,-96.9807633333333,18.8,21.8,148,973.93,-1.5,100,1.17,0.0,1001.57,12.6
2019-11-18 14:20,50.6304583333333,-96.980765,18.6,21.7,146,973.84,-1.5,100,1.17,0.0,1001.47,12.6
2019-11-18 14:30,50.63046,-96.9807666666667,16.2,19.8,154,974.16,-1.5,100,1.16,0.0,1001.79,12.6
2019-11-18 14:40,50.63046,-96.9807666666667,15.1,19.2,156,974.23,-1.4,100,1.16,0.0,1001.87,12.6
2019-11-18 14:50,50.63045,-96.9807616666667,16.1,19.8,153,974.11,-1.4,100,1.16,0.0,1001.74,12.6
2019-11-18 15:00,50.6304566666667,-96.9807633333333,15.5,19.0,164,974.43,-1.3,100,1.16,0.0,1002.06,192.6
2019-11-18 15:10,50.6304533333333,-96.9807683333333,13.5,16.1,169,974.50,-1.3,100,1.17,0.0,1002.13,192.6
2019-11-18 15:20,50.6304533333333,-96.9807666666667,12.0,14.9,165,974.40,-1.2,100,1.17,0.0,1002.03,192.6
2019-11-18 15:30,50.6304533333333,-96.9807666666667,11.9,15.9,166,974.25,-1.0,100,1.18,0.0,1001.86,192.6
2019-11-18 15:40,50.6304516666667,-96.9807666666667,13.7,16.6,165,973.99,-0.8,100,1.19,0.0,1001.58,192.6
2019-11-18 15:50,50.6304516666667,-96.980765,13.1,16.3,159,973.77,-0.8,100,1.19,0.0,1001.35,192.6
2019-11-18 16:00,50.6304533333333,-96.9807666666667,13.1,15.8,159,973.76,-0.8,100,1.19,0.0,1001.34,90.0
2019-11-18 16:10,50.6304683333333,-96.9807833333333,13.5,16.9,159,973.87,-0.8,100,1.20,0.0,1001.45,90.0
2019-11-18 16:20,50.6304566666667,-96.9807666666667,13.4,16.2,166,974.15,-0.7,100,1.20,0.0,1001.74,90.0
2019-11-18 16:30,50.63046,-96.9807683333333,12.6,15.3,162,974.11,-0.6,100,1.20,0.0,1001.69,90.0
2019-11-18 16:40,50.6304583333333,-96.9807716666667,12.5,15.3,154,973.95,-0.6,100,1.21,0.0,1001.53,90.0
2019-11-18 16:50,50.630455,-96.98077,12.6,16.6,156,973.96,-0.6,100,1.22,0.0,1001.53,90.0
2019-11-18 17:00,50.6304516666667,-96.9807683333333,15.2,18.0,151,973.79,-0.6,100,1.22,0.0,1001.35,142.0
2019-11-18 17:10,50.6304516666667,-96.9807666666667,14.6,17.4,152,973.73,-0.5,100,1.22,0.0,1001.28,142.0
2019-11-18 17:20,50.63045,-96.9807683333333,12.9,16.3,156,973.86,-0.5,100,1.21,0.0,1001.40,142.0
2019-11-18 17:30,50.63045,-96.9807683333333,13.0,14.9,161,974.00,-0.4,100,1.20,0.0,1001.53,142.0
2019-11-18 17:40,50.63045,-96.9807683333333,12.9,16.6,155,973.83,-0.4,100,1.20,0.0,1001.36,142.0
2019-11-18 17:50,50.63045,-96.9807683333333,15.3,17.9,149,973.42,-0.4,100,1.20,0.0,1000.93,142.0
2019-11-18 18:00,50.63045,-96.98077,13.5,17.3,155,973.53,-0.3,100,1.21,0.0,1001.04,90.0
2019-11-18 18:10,50.63045,-96.98077,12.0,15.2,157,973.47,-0.3,100,1.21,0.0,1000.98,90.0
2019-11-18 18:20,50.63045,-96.98077,12.2,15.0,157,973.39,-0.3,100,1.22,0.0,1000.88,90.0
2019-11-18 18:30,50.6304516666667,-96.9807866666667,12.0,15.2,155,973.42,-0.2,100,1.21,0.0,1000.92,90.0
2019-11-18 18:40,50.63045,-96.980785,11.9,14.6,154,973.39,-0.1,100,1.20,0.0,1000.88,90.0
2019-11-18 18:50,50.63045,-96.9807783333333,11.7,14.8,153,973.34,-0.0,100,1.19,0.0,1000.82,90.0
2019-11-18 19:00,50.630455,-96.9807716666667,12.6,15.0,149,973.13,0.0,100,1.17,0.0,1000.61,270.0
2019-11-18 19:10,50.6304533333333,-96.9807716666667,12.2,14.6,150,973.13,0.1,100,1.16,0.0,1000.59,270.0
2019-11-18 19:20,50.6304533333333,-96.9807683333333,10.6,15.6,168,973.35,0.3,100,1.16,0.0,1000.80,270.0
2019-11-18 19:30,50.6304566666667,-96.9807683333333,13.4,16.6,179,973.30,1.0,99,1.15,0.0,1000.72,270.0
2019-11-18 19:40,50.63046,-96.980765,14.4,18.2,175,973.21,1.0,99,1.15,0.0,1000.62,270.0
2019-11-18 19:50,50.6304583333333,-96.980765,13.1,15.8,175,973.07,1.0,99,1.14,0.0,1000.49,270.0
2019-11-18 20:00,50.630455,-96.9807666666667,12.2,15.7,173,973.09,1.0,99,1.13,0.0,1000.50,90.0
2019-11-18 20:10,50.630455,-96.9807683333333,12.1,17.0,184,973.26,1.0,99,1.14,0.0,1000.67,90.0
2019-11-18 20:20,50.6304566666667,-96.9807633333333,12.5,17.5,187,973.57,1.0,99,1.14,0.0,1000.98,90.0
2019-11-18 20:30,50.6304533333333,-96.9807433333333,11.8,15.8,195,973.63,1.2,99,1.14,0.0,1001.04,90.0
2019-11-18 20:40,50.6304566666667,-96.98076,11.9,15.1,191,973.51,1.2,99,1.14,0.0,1000.91,90.0
2019-11-18 20:50,50.630455,-96.98076,12.0,15.9,179,973.39,1.1,99,1.16,0.0,1000.79,90.0
2019-11-18 21:00,50.6304566666667,-96.9807616666667,11.3,14.3,178,973.42,1.2,99,1.18,0.0,1000.81,90.0
2019-11-18 21:10,50.6304566666667,-96.9807666666667,10.6,14.4,179,973.57,1.2,99,1.19,0.0,1000.95,90.0
2019-11-18 21:20,50.6304583333333,-96.9807666666667,10.0,13.5,177,973.62,1.2,99,1.19,0.0,1000.97,90.0
2019-11-18 21:30,50.6304583333333,-96.9807683333333,9.6,11.3,170,973.56,1.2,99,1.19,0.0,1000.90,90.0
2019-11-18 21:40,50.6304566666667,-96.98077,9.1,10.9,167,973.61,1.1,99,1.19,0.0,1000.96,90.0
2019-11-18 21:50,50.6304566666667,-96.98077,8.8,10.7,165,973.61,1.0,99,1.20,0.0,1000.97,90.0
2019-11-18 22:00,50.6304566666667,-96.9807633333333,8.2,9.6,164,973.62,0.9,99,1.21,0.0,1000.98,90.0
2019-11-18 22:10,50.6304566666667,-96.9807583333333,8.1,9.4,156,973.61,0.7,99,1.22,0.0,1000.99,90.0
2019-11-18 22:20,50.6304533333333,-96.98076,8.8,10.7,160,973.61,0.5,99,1.23,0.0,1000.99,90.0
2019-11-18 22:30,50.6304533333333,-96.9807633333333,9.9,12.5,158,973.58,0.3,100,1.23,0.0,1000.96,90.0
2019-11-18 22:40,50.630455,-96.9807633333333,10.4,13.7,156,973.59,0.3,100,1.23,0.0,1000.98,90.0
2019-11-18 22:50,50.630455,-96.9807633333333,11.1,13.5,156,973.49,0.3,100,1.23,0.0,1000.88,90.0
2019-11-18 23:00,50.630455,-96.980765,12.4,15.1,161,973.48,0.3,100,1.24,0.0,1000.87,0.0
2019-11-18 23:10,50.6304566666667,-96.980765,12.6,14.5,164,973.48,0.4,100,1.25,0.0,1000.85,0.0
2019-11-18 23:20,50.630455,-96.9807666666667,12.9,14.8,167,973.53,0.5,100,1.26,0.0,1000.90,0.0
2019-11-18 23:30,50.630455,-96.9807683333333,12.1,14.9,167,973.56,0.6,99,1.26,0.0,1000.94,0.0
